This is the latest recevied weather packets stored in our database for station/object OM2RC-6. If no packets are shown the sender has not sent any weather packets the latest 10 day(s).
| Time | Temp. | Humidity | Pressure | Rain* | Wind** | Luminosity | Snow |
|---|---|---|---|---|---|---|---|
| 1777817520 | 22.78° C | 39% | 1018.7 hPa | - | - | - | - |
| 1777817217 | 22.78° C | 40% | 1018.6 hPa | - | - | - | - |
| 1777816915 | 22.78° C | 39% | 1018.7 hPa | - | - | - | - |
| 1777816313 | 22.78° C | 39% | 1018.8 hPa | - | - | - | - |
| 1777816012 | 23.33° C | 38% | 1018.8 hPa | - | - | - | - |
| 1777815711 | 24.44° C | 38% | 1018.8 hPa | - | - | - | - |
| 1777815410 | 23.33° C | 39% | 1018.8 hPa | - | - | - | - |
| 1777815109 | 22.22° C | 40% | 1019 hPa | - | - | - | - |
| 1777814808 | 22.78° C | 39% | 1019.1 hPa | - | - | - | - |
| 1777814507 | 22.78° C | 40% | 1019.2 hPa | - | - | - | - |
| 1777814205 | 23.33° C | 39% | 1019.3 hPa | - | - | - | - |
| 1777813602 | 22.78° C | 39% | 1019.5 hPa | - | - | - | - |
| 1777813302 | 22.78° C | 39% | 1019.4 hPa | - | - | - | - |
| 1777813000 | 22.78° C | 40% | 1019.5 hPa | - | - | - | - |
| 1777812398 | 22.22° C | 39% | 1019.7 hPa | - | - | - | - |
| 1777812097 | 22.22° C | 39% | 1019.8 hPa | - | - | - | - |
| 1777811796 | 23.89° C | 38% | 1019.8 hPa | - | - | - | - |
| 1777811495 | 22.22° C | 41% | 1019.9 hPa | - | - | - | - |
| 1777811183 | 22.78° C | 40% | 1019.9 hPa | - | - | - | - |
| 1777810882 | 23.33° C | 40% | 1020 hPa | - | - | - | - |
| 1777810582 | 22.22° C | 40% | 1020 hPa | - | - | - | - |
| 1777810281 | 22.22° C | 41% | 1020.2 hPa | - | - | - | - |
| 1777809980 | 22.22° C | 40% | 1020.2 hPa | - | - | - | - |
| 1777809679 | 23.33° C | 39% | 1020.2 hPa | - | - | - | - |
| 1777808776 | 22.78° C | 41% | 1020.4 hPa | - | - | - | - |
* Rain since midnight (hover to see other rain measurements)
** Current wind speed in m/s (hover to see current wind gust speed)